星链-37120(STARLINK-37120)

导读

STARLINK-37120(NORAD编号68211)是美国SpaceX公司星链(Starlink)项目的低轨通信卫星,部署于近地轨道,属于星链卫星互联网组网的组成部分。星链星座通过大规模低轨卫星部署,为全球提供低时延宽带互联网接入服务。该卫星采用星链标准设计,配备相控阵天线与推进系统,支持动态波束调度和轨道机动。曾有星链卫星出现轨道异常事件,SpaceX会对故障卫星监控,最终使其再入大气层烧毁,降低太空碎片风险。

基本信息
目录编号:
68211
目录名称:
STARLINK-37120
国际标识:
2026-053E
轨道中心:
EARTH
卫星名称:
星链-37120
卫星全名:
星链-37120(STARLINK-37120)
卫星状态:
在轨 (已飞行133 天)
发射日期:
2026-03-17 UTC
国别 :
美国 (US)
星等 :
--
轨道信息
数据来源 国际轨道数据 AOE轨道数据
星历时间 2026-07-27T12:31:11+0800
21小时前
查看轨道信息
2026-07-25T00:00:00+0800
3天前
查看轨道信息
半长轴 6843.66km 6843.665km
偏心率 0.0001688 0.0001827
轨道倾角 97.286° 97.282°
近地点辐角 91.629° 168.017°
升交点赤经 82.701° 80.213°
平近点角 268.514° 320.825°
近地点 464.367km 464.277km
远地点 466.679km 466.779km
周期 93.906分钟 93.906分钟
每日圈数 15.33452 15.334504
详细信息
固有亮度:
5
最大亮度:
2.5
卫星平台:
Starlink V1.0
覆盖范围:
全球
运营商:
太空探索技术公司
运营商所在国:
美国
制造商(研发单位):
太空探索技术公司
制造商所在国:
美国
使用方式:
暂无
卫星简介
Starlink 计划是 SpaceX 推出的全球卫星互联网项目,通过发射低轨道卫星,为全球尤其是偏远地区提供高速、低延迟的互联网服务。自 2019 年起,Starlink 已部署数千颗卫星,旨在缩小全球数字鸿沟,推动互联网普及。该项目还为军事、航空等行业提供通信支持,带来广泛经济效益。
2D轨道图
3D轨道图
轨道高度分析图
轨道倾角分析图
轨道综合分析图
查看轨道综合分析图